Regional Weather Roundup
Issued by NWS

Home | Current Version | Previous Version | Graphics & Text | Print | Product List | Glossary On
Versions: 1 2 3 4 5 6 7 8 9 10 11 12 13 14 15 16 17 18 19 20 21 22 23 24 25 26 27 28
000
ASUS45 KBOI 270710
RWRID

IDAHO REGIONAL WEATHER ROUNDUP
NATIONAL WEATHER SERVICE BOISE ID
100 AM MDT SUN MAY 27 2018

NOTE: "FAIR" INDICATES FEW OR NO CLOUDS BELOW 12000 FEET
WITH NO SIGNIFICANT WEATHER AND/OR OBSTRUCTIONS TO VISIBILITY

IDZ012-014-270800-
SOUTHWEST IDAHO


CITY           SKY/WX    TMP DP  RH WIND       PRES   REMARKS
BOISE          PTCLDY    54  51  90 W3        29.93F
CALDWELL       CLOUDY    59  46  62 W16       29.95R
MOUNTAIN HOME  CLOUDY    57  57 100 NW10      29.93S
$$

IDZ016-017-270800-
SOUTHCENTRAL IDAHO


CITY           SKY/WX    TMP DP  RH WIND       PRES   REMARKS
BURLEY         PTCLDY    50  45  83 SW6       29.95S
JEROME         CLEAR     52  47  83 S9        29.95F
TWIN FALLS     CLEAR     49  45  86 SW10      29.97S
$$

IDZ019>023-270800-
SOUTHEAST IDAHO


CITY           SKY/WX    TMP DP  RH WIND       PRES   REMARKS
IDAHO FALLS    CLOUDY    52  49  89 N8        29.96F
POCATELLO      MOCLDY    53  46  77 SW14      29.97S
REXBURG        CLOUDY    56  44  64 SW7       30.00R
$$

IDZ006-010-011-018-031-032-270800-
CENTRAL IDAHO MOUNTAINS


CITY           SKY/WX    TMP DP  RH WIND       PRES   REMARKS
MCCALL         MOCLDY    53  44  71 N10       30.03R
HAILEY         PTCLDY    46  41  81 NW6       29.99S
STANLEY          N/A     38  37  97 CALM      30.10R
SALMON         MOCLDY    50  46  86 CALM      30.03R
CHALLIS        PTCLDY    54  41  61 NW6       30.02R
$$

IDZ002-004-006-007-026-270800-
NORTHERN IDAHO


CITY           SKY/WX    TMP DP  RH WIND       PRES   REMARKS
LEWISTON       PTCLDY    57  50  77 W3        30.04S
LOWELL           N/A     53  53 100 CALM      30.07R
COEUR D`ALENE  PTCLDY    59  45  59 S3        30.06R
MULLAN PASS    PTCLDY    43  41  93 NW7       30.12R
$$




USA.gov is the U.S. government's official web portal to all federal, state and local government web resources and services.